GFSSW_850_spd_276.txt.gz
Wind_Speed
12 12 12 12 12 11 11 11 11 11 10 10 9 9 10 12 13 15 18 12 10 17 10 10 12 16 16 19 19 20 13 15 23 4 10 25 9 41 41 20 10 14 24 25 20
13 12 13 13 13 13 12 12 12 11 11 11 10 9 10 12 15 22 14 12 16 16 16 14 16 14 19 21 19 22 13 23 11 2 18 4 18 38 7 14 16 20 25 22 20
13 13 14 14 14 14 14 13 13 12 11 11 10 9 9 11 14 18 11 16 17 16 15 14 13 16 20 20 24 22 17 21 17 4 12 21 19 15 37 16 21 23 25 22 19
14 14 15 15 15 15 14 14 14 13 12 11 10 8 8 8 5 1 4 11 17 13 14 14 17 18 18 18 24 21 24 25 26 8 8 14 15 16 26 30 28 32 22 21 18
15 15 16 16 16 16 16 15 14 13 12 11 10 8 8 9 19 11 6 7 12 17 17 14 16 17 17 20 23 19 22 25 19 12 10 18 15 11 36 15 18 37 16 18 15
17 16 17 17 17 17 16 16 14 13 11 10 9 9 8 16 5 4 5 7 12 17 15 17 15 16 19 22 20 19 21 20 27 14 13 15 17 14 28 14 24 34 28 19 18
19 19 18 18 18 17 17 16 14 12 10 9 8 8 11 21 4 6 10 10 14 16 15 14 16 17 13 15 19 17 14 13 22 14 18 16 14 16 14 32 49 15 14 22 19
19 19 19 19 18 17 16 15 12 10 8 7 6 7 11 10 16 13 12 13 14 14 14 12 15 13 18 19 14 13 13 15 17 19 20 16 16 18 17 8 16 16 17 18 22
19 19 19 19 18 17 15 13 10 8 6 6 5 6 14 8 14 14 15 16 15 14 13 11 11 16 17 14 14 14 13 19 20 21 11 11 16 21 20 13 11 9 18 20 19
20 19 19 19 18 17 13 11 8 7 5 6 9 9 20 17 15 19 17 16 15 14 14 12 10 13 15 14 13 16 18 13 15 13 11 15 14 19 4 13 16 15 12 15 25
20 20 19 18 16 14 8 8 6 1 12 16 10 14 1 13 11 17 20 18 16 16 15 18 12 15 18 17 20 21 15 12 15 12 12 14 10 14 15 14 10 14 17 14 16
20 19 19 17 13 7 7 9 5 8 14 21 29 25 19 9 11 16 21 22 20 17 19 15 17 19 18 17 17 17 11 16 15 6 8 8 12 14 11 11 12 10 16 19 19
20 20 18 15 7 7 9 7 8 13 10 19 30 32 27 18 19 19 25 27 19 19 19 19 20 22 19 17 10 11 13 15 16 13 9 7 13 17 19 16 4 1 10 16 13
20 20 19 12 4 5 5 6 9 11 6 10 16 25 29 24 22 21 26 28 19 20 21 20 23 17 15 17 10 14 16 15 16 15 12 16 13 16 19 14 10 6 9 12 13
20 19 16 16 10 5 7 13 11 6 6 9 12 5 22 31 5 28 26 28 24 20 14 21 23 20 14 15 12 16 15 13 16 15 15 19 11 12 11 16 13 15 9 6 11
18 18 17 9 14 9 13 13 7 6 9 8 10 10 18 28 29 15 28 29 28 23 20 21 25 17 20 16 16 15 11 13 8 11 13 17 16 16 11 14 15 16 11 9 10
20 17 18 15 6 5 8 6 6 8 7 8 12 12 18 19 23 22 21 24 21 20 22 21 22 19 14 12 15 15 10 8 11 11 13 17 17 14 12 22 21 20 17 14 13
22 18 17 18 9 6 8 7 11 11 22 10 4 10 17 18 21 24 21 22 25 24 15 19 18 22 14 18 17 17 15 11 11 11 8 14 15 9 15 23 27 24 21 18 16
20 17 16 14 9 9 10 12 8 15 15 14 10 14 16 18 16 24 22 22 24 25 22 17 22 17 25 14 20 17 15 19 17 17 13 4 9 11 14 14 23 24 22 22 18
21 16 17 14 15 13 11 21 16 24 25 14 14 14 17 18 21 19 25 22 23 25 25 21 19 17 18 23 20 20 16 14 10 12 14 12 14 10 18 16 16 19 21 21 21
11 8 3 15 11 15 13 18 22 35 36 22 15 19 21 21 19 21 22 24 23 25 24 22 17 16 16 14 19 13 16 15 10 10 10 10 3 11 12 11 14 20 24 19 20
11 6 9 10 11 13 16 21 26 28 30 22 20 20 21 23 24 21 24 22 27 26 25 21 10 12 21 19 19 19 19 19 9 13 10 9 2 1 14 15 22 20 29 25 20
7 16 11 10 8 12 21 24 29 25 25 27 23 19 19 22 21 19 22 20 23 18 20 16 14 11 17 15 13 15 21 14 11 10 11 9 9 6 2 11 20 18 30 26 23
7 5 13 18 21 19 20 21 22 31 29 33 26 24 21 22 21 21 22 19 20 17 16 13 10 15 12 17 15 19 18 17 14 11 13 14 14 8 9 2 9 12 31 24 19
7 7 12 5 13 12 15 18 23 22 26 28 24 26 21 21 23 23 21 21 21 7 5 4 11 15 20 23 18 17 20 20 19 14 12 11 7 8 5 9 22 33 17 21 18
8 9 12 17 20 18 14 18 22 25 27 22 25 22 23 22 22 21 22 20 14 13 14 10 10 14 19 21 21 21 19 23 20 19 19 16 14 11 19 17 24 33 13 23 20
7 17 11 11 15 12 14 19 18 22 31 33 27 22 25 26 29 27 31 23 22 3 13 15 12 14 19 21 21 21 21 15 15 18 16 15 14 11 12 18 11 3 3 19 21

GFSSW_850_spd_279.txt.gz
Wind_Speed
13 13 12 12 12 12 12 13 13 12 12 12 12 12 12 14 14 17 22 16 11 11 13 10 10 11 8 16 15 20 3 8 13 4 6 14 6 8 5 23 45 12 34 35 25
14 14 14 14 13 13 13 13 13 13 13 12 12 12 12 15 17 22 17 16 16 12 12 13 11 11 12 14 13 9 2 9 17 3 4 6 19 23 21 20 39 20 27 26 27
15 15 15 15 15 14 15 14 14 14 13 13 13 11 12 13 17 13 6 10 14 11 12 14 14 18 22 21 26 20 9 13 24 14 16 11 28 17 27 14 7 11 19 23 24
16 16 16 17 16 16 15 15 15 14 13 13 12 11 10 10 3 3 3 6 9 9 15 14 15 21 11 9 25 9 23 24 29 20 6 8 20 11 15 11 28 20 19 24 23
17 18 18 18 17 17 16 16 15 14 13 12 12 11 9 8 20 10 11 6 7 16 18 15 14 19 7 11 20 9 19 30 28 27 7 4 14 13 16 18 22 10 26 29 26
18 18 19 19 18 18 17 16 15 14 13 12 11 10 9 9 2 8 7 9 9 16 19 15 15 17 20 20 9 27 26 23 24 22 21 2 29 26 24 24 13 15 31 24 25
18 19 19 19 19 19 17 16 15 13 12 11 9 10 13 23 2 6 8 5 8 11 15 11 15 22 19 11 23 24 9 9 9 13 7 11 6 9 34 28 27 16 33 37 32
19 19 19 19 19 19 18 16 14 11 9 8 8 9 13 7 18 12 16 9 6 11 13 15 17 20 15 19 21 9 7 5 8 13 21 6 9 10 34 31 29 27 34 42 39
19 20 20 20 19 18 16 14 12 9 7 6 6 7 14 4 18 16 16 17 11 13 18 14 15 17 10 6 7 6 6 9 13 19 8 8 9 10 21 36 30 29 31 42 31
20 19 19 19 18 17 13 13 9 7 5 6 9 8 15 16 14 14 16 18 17 17 18 16 5 2 4 1 7 10 6 9 11 11 12 7 7 9 23 18 35 33 23 40 32
20 20 20 18 16 13 9 11 8 3 5 11 8 15 17 7 11 16 19 17 20 15 6 16 3 7 11 12 15 12 12 14 11 5 8 9 7 10 14 8 9 33 39 37 34
21 20 19 17 12 7 10 13 9 12 16 21 31 33 35 20 16 17 19 21 18 7 10 6 11 11 14 15 15 16 10 10 8 10 4 9 7 3 6 8 9 32 32 32 30
20 20 19 15 6 5 9 10 9 17 8 19 33 32 37 21 23 17 19 26 10 8 9 11 11 18 17 16 13 10 3 8 8 12 6 4 1 3 11 14 30 34 30 26 24
19 19 18 15 3 8 3 9 13 14 4 8 9 12 29 28 23 21 23 22 12 12 11 9 21 17 15 13 11 5 4 8 12 7 4 3 5 6 8 10 15 26 37 39 36
19 18 14 15 12 10 8 12 16 6 4 5 12 6 18 22 3 27 25 27 15 12 8 14 14 11 16 10 9 7 5 6 8 9 4 12 2 8 5 10 11 23 36 39 36
20 17 18 9 13 4 5 12 5 0 7 5 7 8 10 25 28 6 26 24 25 11 13 11 23 16 18 11 9 5 6 7 4 3 3 10 3 10 7 9 9 22 33 37 37
23 19 18 17 5 6 7 5 2 4 8 6 7 7 9 13 17 19 11 11 11 10 16 15 17 15 16 9 5 5 1 2 3 3 7 7 6 15 7 15 17 22 31 34 29
21 20 19 20 11 8 2 2 5 9 12 12 15 10 12 10 15 16 11 14 12 11 3 11 12 17 12 10 8 7 9 6 6 5 6 7 6 9 11 22 25 28 32 29 27
22 17 21 16 9 11 3 4 6 7 9 9 20 11 7 8 11 16 16 13 14 17 15 5 18 15 15 6 10 9 6 9 4 6 3 4 4 5 14 14 21 25 29 28 27
21 18 13 7 10 10 3 4 6 11 15 13 10 11 11 11 7 10 14 12 15 17 22 14 12 17 11 16 12 11 7 4 1 5 5 7 4 4 10 11 11 14 24 27 29
11 10 7 13 17 16 5 6 9 23 24 7 7 14 18 18 14 12 7 15 12 15 17 15 8 23 12 5 14 4 5 3 4 6 6 3 5 8 14 15 14 19 28 34 30
5 4 10 14 5 7 8 7 8 19 29 17 16 15 15 19 15 11 15 12 23 24 17 11 10 8 17 20 9 11 11 10 5 5 3 6 5 1 13 18 29 30 34 34 31
4 10 10 11 4 7 14 18 24 18 18 18 15 15 17 17 8 5 13 24 33 14 17 11 6 8 10 9 6 8 8 7 5 5 7 5 5 6 7 6 13 24 26 24 26
5 3 9 18 18 9 10 13 16 20 22 22 20 20 18 16 10 13 18 16 34 31 31 26 7 13 13 11 5 3 6 7 7 4 5 6 5 3 4 12 21 36 36 32 23
4 7 8 2 8 9 10 10 14 15 21 28 10 15 17 15 15 16 16 20 27 32 7 8 8 7 11 13 14 8 9 11 9 7 8 9 9 9 10 15 28 43 38 29 34
6 7 12 18 14 11 9 8 14 15 14 15 13 17 18 15 17 13 10 14 14 9 8 8 4 7 8 13 18 15 15 11 9 7 6 9 6 7 13 29 31 35 30 36 34
8 8 9 8 6 6 7 10 15 19 15 17 18 17 19 16 34 38 27 25 13 6 11 6 3 5 7 7 8 14 17 15 9 9 7 9 6 9 7 9 22 29 34 31 30

GFSSW_850_spd_285.txt.gz
Wind_Speed
11 11 12 12 12 13 13 13 14 14 14 14 13 13 14 15 16 18 21 14 10 11 15 9 3 1 3 4 6 5 4 3 4 5 2 8 3 10 1 5 6 7 13 14 17
12 12 12 12 13 13 14 14 14 14 14 14 14 14 15 16 17 20 11 10 12 10 10 11 6 4 3 2 5 5 4 7 8 7 4 12 9 17 4 7 8 21 16 21 27
12 13 13 14 14 14 14 15 15 15 15 14 14 14 15 15 17 1 2 1 8 14 11 7 5 3 2 3 5 6 6 4 4 11 8 17 13 16 8 8 23 34 25 31 33
13 13 14 14 15 15 15 15 15 15 15 15 14 14 13 11 4 4 2 4 2 13 14 9 5 6 3 4 6 2 13 12 9 5 9 15 21 10 23 16 29 17 30 34 38
14 15 15 15 16 16 16 16 15 16 15 14 13 13 12 9 17 8 7 1 4 12 14 11 10 8 3 4 2 5 5 8 16 17 15 21 28 13 34 37 15 21 32 37 39
14 15 16 17 17 17 16 15 16 16 15 14 12 12 11 8 7 5 9 4 6 9 14 14 7 7 4 3 2 3 12 18 11 20 6 20 10 14 34 36 23 30 34 37 39
15 15 15 16 17 17 17 15 15 15 14 13 12 12 15 22 9 2 9 5 5 7 11 14 12 2 5 7 2 5 5 8 7 4 6 14 3 16 26 33 27 36 29 31 35
16 16 16 17 17 17 16 15 14 13 12 10 11 11 12 12 13 16 10 8 6 7 6 7 10 8 5 7 6 4 4 3 6 3 7 9 8 14 29 29 31 36 23 31 30
16 16 17 17 18 18 12 13 11 9 7 8 8 7 12 7 11 16 17 12 9 7 9 3 3 5 5 2 5 7 2 1 8 3 5 6 11 5 29 38 30 26 26 30 31
17 17 17 17 18 14 12 5 6 4 3 7 9 7 10 3 5 6 19 14 12 8 9 7 7 1 3 4 3 2 3 3 4 7 9 14 16 10 28 34 27 22 24 27 40
18 17 17 17 17 11 9 2 5 3 13 11 13 15 21 18 15 6 14 17 15 6 4 4 3 6 7 6 4 1 1 3 11 10 4 8 11 10 5 15 17 26 28 30 33
20 18 17 15 14 6 9 8 11 10 16 22 28 29 30 29 11 8 7 12 9 7 2 3 6 8 4 3 3 3 5 9 10 8 4 9 8 4 6 11 30 28 34 32 31
20 20 18 14 9 2 4 8 9 14 7 19 15 18 25 17 16 24 8 13 4 6 6 7 7 4 4 3 3 3 4 7 7 7 4 5 6 6 5 5 11 12 27 28 36
19 19 18 14 6 10 3 5 8 13 4 7 4 5 10 11 6 26 23 10 3 10 7 6 8 7 4 6 6 6 8 10 6 2 2 2 4 5 4 2 2 5 15 18 25
19 18 17 15 13 9 9 10 10 5 4 2 1 2 7 16 2 8 21 15 8 5 6 7 2 4 6 10 7 11 6 8 7 4 3 2 3 6 4 5 6 8 12 20 29
18 18 19 14 14 10 6 6 1 5 6 6 3 2 3 6 3 3 12 14 11 5 2 7 4 5 7 5 7 7 3 3 4 2 2 4 5 4 6 9 5 6 17 20 24
20 17 18 17 10 7 6 4 4 3 6 5 5 5 4 4 4 3 5 5 6 3 6 6 5 3 3 7 2 4 5 3 4 4 5 4 3 8 3 8 14 19 27 22 21
21 20 16 15 12 9 2 4 3 3 5 5 5 8 1 7 2 4 3 3 2 4 2 6 8 7 4 7 8 6 8 5 6 4 6 4 5 5 6 18 16 17 20 24 23
21 17 15 9 10 13 10 3 7 5 3 7 9 4 6 6 5 1 5 5 9 10 9 6 6 5 5 6 8 2 4 5 5 2 2 4 3 2 6 10 16 20 24 26 26
19 17 4 5 10 17 4 5 4 3 4 3 2 6 5 6 5 7 3 2 3 6 3 4 6 7 9 4 3 6 5 2 3 4 4 4 3 5 4 7 8 15 24 29 29
13 10 6 6 16 12 4 6 4 4 8 4 1 4 2 3 5 3 5 4 3 4 4 5 5 18 2 5 8 1 1 2 4 5 6 3 6 8 12 15 19 21 25 35 35
5 3 7 21 3 1 3 5 2 6 4 4 4 7 5 2 4 3 5 3 11 5 2 1 4 7 13 12 5 6 8 7 4 6 3 4 7 4 13 19 22 22 31 38 38
3 3 13 8 2 2 3 2 3 3 2 3 2 1 1 2 3 6 5 8 15 6 2 2 2 4 11 5 3 5 7 5 3 4 7 5 6 3 10 17 25 27 31 39 39
4 2 3 8 5 6 2 3 2 6 7 8 5 5 4 3 3 4 5 7 22 17 13 4 4 7 7 6 5 5 7 7 7 3 4 8 7 4 8 14 21 29 37 43 41
2 2 1 2 2 3 3 0 2 3 2 5 3 4 3 3 4 2 5 6 12 11 6 3 6 6 7 9 10 17 7 7 9 7 7 12 9 11 15 18 33 46 33 33 38
2 2 3 4 6 1 5 6 6 2 2 3 1 3 2 3 1 3 5 2 6 7 7 6 4 3 7 8 6 7 15 18 8 4 6 6 7 5 9 17 21 34 37 35 38
2 2 3 3 2 1 3 2 3 1 3 3 3 2 4 2 12 19 23 22 16 8 2 3 3 2 6 4 9 7 11 16 11 5 8 7 9 5 3 16 27 32 39 42 48

GFSSW_850_spd_291.txt.gz
Wind_Speed
12 12 12 12 13 13 13 13 13 13 13 13 13 13 14 14 14 15 15 9 7 12 10 7 7 8 7 6 6 5 3 4 3 5 1 2 4 3 3 5 4 5 2 7 23
12 13 13 14 13 14 14 14 13 13 13 13 13 13 14 15 15 15 11 9 9 11 14 16 8 7 4 5 5 5 4 6 3 5 4 3 6 6 4 6 7 8 3 12 24
13 13 14 14 15 15 15 15 14 14 13 13 13 13 13 14 13 2 4 2 4 14 11 14 14 10 4 4 5 4 5 5 4 10 6 4 5 6 6 10 5 13 16 21 25
14 14 15 15 15 16 16 16 16 15 14 13 12 12 12 10 2 5 3 5 3 14 11 14 14 8 5 5 5 4 8 6 5 6 5 5 3 5 13 5 4 9 12 19 22
14 15 15 15 16 17 17 17 17 16 14 13 12 11 10 7 8 7 8 6 2 15 15 14 12 7 5 5 5 6 4 6 12 11 10 6 11 10 16 17 8 4 11 18 21
14 14 15 16 17 18 18 19 18 16 14 12 11 10 8 6 5 5 7 3 3 12 15 12 5 6 4 3 5 2 5 11 9 12 6 5 6 5 8 15 19 14 14 15 19
15 15 15 16 17 18 19 17 16 15 13 12 10 9 11 15 7 2 5 9 6 9 9 10 4 5 4 3 2 2 5 6 7 3 3 6 5 10 12 2 13 22 17 15 21
16 16 16 17 18 19 17 16 14 11 9 9 8 8 8 7 7 9 9 3 7 7 8 6 9 4 2 1 1 1 2 5 3 1 1 4 6 9 7 14 17 18 25 22 24
18 17 17 18 18 17 16 15 11 10 8 5 6 5 7 3 2 2 11 9 9 7 9 4 7 3 1 2 2 0 7 5 2 4 4 3 9 16 5 6 18 24 24 26 25
18 18 17 18 18 16 16 14 12 11 7 8 8 5 7 3 2 5 5 14 8 13 9 4 2 3 2 4 6 5 3 2 5 4 3 6 15 17 16 15 23 26 24 24 25
20 18 17 16 15 14 15 10 8 3 15 9 4 8 5 5 5 2 6 16 11 7 5 4 5 10 8 4 1 1 2 6 7 7 5 6 12 15 13 11 13 21 26 22 24
20 19 17 16 13 9 11 7 9 9 12 16 18 24 24 18 5 5 7 10 8 7 6 4 9 7 3 6 4 3 4 9 11 4 5 9 15 11 6 4 5 12 18 19 18
19 18 17 14 10 5 6 9 13 12 6 9 5 5 3 13 10 10 14 9 7 7 8 8 2 5 8 6 5 6 6 8 9 8 5 6 7 5 1 4 2 7 14 15 20
19 17 15 12 5 7 3 9 14 8 3 4 1 1 1 2 5 13 16 12 3 10 8 6 4 6 7 7 4 8 6 9 7 3 4 2 5 3 5 10 5 9 11 14 17
18 18 15 11 9 6 5 6 9 3 5 3 2 1 2 2 4 4 18 9 10 7 6 5 5 6 8 14 9 7 5 5 5 5 3 4 5 3 2 6 6 7 10 12 14
17 16 16 12 9 4 3 4 1 2 5 1 2 1 2 3 1 4 6 5 6 6 2 6 2 3 3 4 10 2 3 1 1 3 6 4 5 4 4 4 4 4 5 9 12
16 14 15 13 7 6 3 1 2 3 5 5 4 5 4 4 1 1 7 10 8 6 9 3 11 6 5 8 4 4 3 3 5 6 7 1 4 7 9 7 8 10 10 10 13
16 14 12 10 8 6 3 2 4 1 2 3 5 5 3 6 1 1 6 8 2 3 3 7 4 11 8 16 8 6 6 5 7 6 5 3 4 3 5 7 10 12 12 12 14
16 12 8 6 4 8 5 3 4 3 2 5 2 3 3 4 4 1 2 4 5 7 8 5 4 2 4 4 11 5 7 2 2 2 4 4 4 10 9 12 11 7 7 13 17
13 11 2 3 5 12 2 3 3 2 3 1 1 3 4 7 3 5 1 4 2 4 3 5 7 7 3 5 3 5 8 3 2 5 8 5 4 6 7 11 7 10 13 14 16
9 3 5 3 11 8 4 5 3 5 2 1 1 1 2 2 4 3 4 6 10 7 3 4 5 4 1 7 11 5 5 1 2 2 6 8 6 6 11 11 12 11 13 15 19
2 1 5 13 3 0 3 3 2 2 1 1 2 2 1 0 1 3 2 3 15 9 3 3 2 4 10 2 5 8 12 8 6 5 2 3 7 5 9 11 13 18 10 14 19
1 2 10 5 3 3 2 3 2 2 1 1 1 2 1 3 3 2 2 1 14 10 7 4 2 3 4 4 3 2 2 2 0 2 12 10 7 2 8 12 17 17 9 16 20
1 2 3 6 2 1 2 3 4 3 2 2 1 1 1 2 1 1 3 2 9 8 8 1 2 4 5 1 0 5 5 3 5 4 9 11 16 11 13 14 20 16 11 15 20
3 1 3 3 4 4 2 1 5 5 2 2 2 1 4 5 3 2 3 6 3 7 4 4 4 4 9 10 10 12 14 12 11 12 8 15 16 15 14 12 16 15 13 17 23
4 3 3 1 1 4 5 6 7 3 1 3 4 5 3 2 0 3 1 1 3 5 4 3 2 4 6 8 11 16 17 15 16 17 16 20 21 20 27 16 16 14 16 22 27
6 6 5 1 1 3 3 6 7 6 1 2 9 5 3 2 1 1 5 9 8 5 5 4 3 2 8 4 12 18 16 21 19 18 17 16 15 17 13 14 20 19 21 27 23